RH
63 90 73 52 45 60 52 73 82 100 92 57 47 49 49 53 57 44 46 48 36 41 38 37 39 41 64 73 63 59 46 53 61 76 90 100 97 99 79 75 75 78 68 78
80 71 98 100 90 55 45 41 60 65 53 46 45 44 58 72 65 54 47 44 43 35 34 33 71 59 72 79 58 85 66 89 100 75 66 68 78 96 100 100 100 100 100 100
99 96 100 92 67 54 47 45 47 47 48 65 58 48 54 56 69 58 57 50 51 59 59 56 46 65 85 82 83 76 82 81 100 100 100 86 57 40 44 58 56 63 75 84
81 74 71 60 54 48 55 53 51 54 59 73 61 50 48 55 54 55 48 51 95 92 87 94 84 92 100 98 83 73 67 92 100 100 100 100 90 60 63 64 59 74 70 75
68 85 66 79 64 65 68 65 89 79 76 67 77 80 79 81 83 49 45 70 88 80 89 79 97 93 79 100 93 70 72 72 94 100 100 76 61 74 85 88 71 58 68 68
100 100 82 55 68 83 82 100 100 98 87 66 91 62 48 59 66 44 82 100 100 100 91 99 99 97 100 100 100 100 86 70 93 58 82 74 91 90 94 100 85 73 73 71
97 62 50 43 40 68 75 100 89 90 100 99 90 80 61 69 75 84 100 100 100 100 100 100 100 100 100 100 100 100 88 98 92 98 93 100 100 100 100 100 92 70 75 80
99 94 78 67 79 75 68 63 52 51 78 86 80 73 85 86 75 91 100 100 100 100 100 100 100 100 100 100 100 100 100 91 98 100 100 100 100 100 100 100 88 97 69 67
98 92 59 87 96 100 100 61 89 98 82 75 85 77 89 92 100 100 100 100 80 98 100 100 100 100 100 96 52 60 74 100 100 100 100 100 100 100 100 100 100 86 65 55
94 61 97 59 82 100 60 55 71 75 90 87 87 65 68 100 100 100 100 86 100 100 100 100 75 70 62 41 37 53 58 94 100 100 100 100 100 100 100 93 81 62 59 52
56 71 95 82 100 99 90 100 98 100 86 86 89 98 86 100 100 100 97 100 100 100 100 94 58 43 36 47 88 53 53 70 100 100 100 100 100 93 98 100 96 100 63 71
72 91 96 100 100 100 100 100 100 100 100 94 100 100 100 100 100 100 100 100 100 100 82 50 34 21 21 32 52 66 39 55 70 83 80 64 65 71 92 89 78 68 55 49
100 100 69 56 53 91 100 100 100 100 100 100 100 100 100 100 100 100 100 100 100 86 43 26 12 10 12 14 20 35 60 71 80 70 55 74 77 75 100 65 38 37 40 48
100 97 64 100 92 83 88 98 100 100 100 100 100 100 100 100 100 100 100 94 96 48 22 11 10 11 13 18 20 22 20 20 21 27 32 27 31 38 58 78 41 34 32 34
98 81 100 99 100 100 100 100 100 100 100 100 100 100 100 100 100 100 80 71 29 15 10 10 12 14 18 18 15 16 20 22 20 23 20 20 21 23 26 26 26 28 31 36
100 100 100 100 100 100 100 100 100 100 100 100 100 87 96 91 80 50 23 14 9 9 10 12 13 16 17 17 16 21 19 20 20 20 19 20 20 19 20 22 24 28 31 37
100 100 100 100 100 100 100 100 100 100 100 100 100 75 53 49 47 31 9 8 8 10 13 16 19 20 16 15 16 18 19 18 20 27 29 28 31 23 20 22 23 26 31 33
100 100 100 100 100 99 100 100 100 100 100 96 80 41 28 24 24 9 8 8 10 14 15 15 17 17 17 18 20 18 25 35 50 53 40 28 25 24 22 22 23 25 27 33
100 100 100 100 100 99 99 100 100 98 78 66 56 37 27 9 8 8 8 10 14 15 14 17 19 19 18 20 21 24 40 58 58 66 58 37 35 33 30 27 28 29 35 42
100 100 100 100 100 84 96 91 88 89 72 56 29 10 8 7 8 8 10 14 18 19 18 18 17 16 21 25 25 32 56 59 56 51 46 52 68 72 58 45 40 43 48 59
83 98 92 97 100 84 86 89 74 57 38 14 9 8 7 7 9 10 11 15 18 19 18 19 19 19 23 29 33 48 61 76 74 76 74 73 79 86 87 87 85 84 88 90
82 92 99 98 96 94 93 58 46 21 8 7 8 8 8 9 11 12 14 16 16 17 17 20 24 22 25 36 49 73 87 85 86 85 86 88 93 98 99 96 94 95 95 97
82 100 87 90 80 64 42 15 8 6 7 8 9 9 9 10 12 16 19 17 19 20 20 21 22 22 28 45 65 89 91 85 82 86 93 95 98 100 98 97 93 94 97 97
85 84 61 50 31 13 7 6 6 6 6 8 9 9 11 12 16 18 19 18 20 17 23 27 29 28 29 55 67 88 92 83 92 94 95 93 92 91 88 90 94 91 89 90
76 43 22 10 7 6 6 6 7 8 8 9 10 13 13 15 18 20 17 20 26 23 26 35 44 39 29 42 70 92 93 87 85 90 94 92 95 100 91 83 80 80 83 85
17 8 6 6 6 6 8 7 10 9 10 13 16 17 16 18 20 21 19 24 30 28 33 45 60 52 38 40 57 76 78 78 85 93 98 100 100 92 88 80 82 85 83 80
Wind_Speed
33 44 44 45 44 39 41 46 41 55 55 53 54 57 62 65 65 62 61 60 58 55 48 43 43 48 53 62 68 58 54 59 69 75 76 76 79 82 81 81 82 84 86 88
45 42 47 51 52 51 48 48 49 50 55 58 59 60 68 72 71 71 67 65 67 66 58 51 57 67 60 69 74 72 72 66 61 69 73 74 76 73 76 79 82 86 87 89
42 46 50 49 50 53 55 52 52 55 59 65 68 63 70 76 79 81 80 74 74 78 67 73 67 74 66 73 77 79 76 79 60 64 67 69 74 72 77 77 79 83 86 87
46 53 57 56 55 57 56 59 62 65 66 69 72 69 73 77 85 86 83 82 84 82 73 74 76 83 79 78 77 82 78 78 70 65 70 70 71 74 74 78 78 82 87 90
53 63 62 64 66 66 68 72 72 72 76 76 84 88 77 83 90 89 83 83 85 88 84 88 87 89 89 80 79 81 85 72 71 75 75 74 79 83 85 89 90 86 84 91
64 68 71 71 70 75 76 74 77 82 83 82 89 95 83 89 90 91 86 88 89 87 93 94 99 97 92 85 87 93 91 75 76 71 82 96 92 93 100 101 100 97 91 90
67 74 75 79 78 80 82 85 87 88 92 95 99 103 96 94 99 96 89 88 89 92 97 105 105 103 94 91 93 86 59 60 70 94 93 95 100 103 99 103 106 100 96 95
70 70 83 77 84 83 84 90 94 94 96 96 101 103 101 105 104 100 91 89 98 106 109 107 101 101 105 107 99 40 63 89 103 102 98 96 105 103 104 106 106 104 100 95
72 76 82 87 86 86 90 95 100 103 103 105 103 106 105 107 106 99 100 106 108 107 103 109 112 114 116 107 102 87 87 93 92 96 101 95 99 103 106 109 111 108 99 92
86 85 88 89 92 93 96 100 104 110 112 112 105 103 105 109 107 111 118 119 115 119 124 134 115 112 114 110 100 91 77 84 89 93 98 92 98 107 109 105 100 95 86 82
92 91 90 96 97 99 102 101 110 111 114 120 118 104 102 108 114 122 127 126 129 134 142 129 118 121 111 94 92 83 77 76 82 91 91 92 91 90 94 94 90 92 85 85
98 99 91 95 101 105 105 105 113 117 117 125 125 119 106 119 123 124 129 132 137 145 135 128 123 106 92 83 78 80 74 71 75 79 82 79 79 75 78 87 90 87 80 73
104 106 105 103 105 107 109 113 120 123 125 119 121 121 122 122 124 131 140 144 146 141 132 120 99 86 81 74 69 68 70 74 76 79 75 75 78 76 83 88 81 76 69 70
113 110 109 108 111 116 114 112 116 124 125 126 129 132 125 130 137 141 148 149 147 134 118 95 89 80 70 68 66 64 62 62 62 65 68 70 71 73 77 84 81 73 65 66
116 112 116 112 116 119 117 113 123 120 122 133 132 137 137 142 142 149 148 141 126 107 91 80 74 69 67 65 62 57 57 58 56 59 60 61 63 64 68 71 70 66 61 59
113 111 120 121 124 127 124 121 128 129 127 133 138 142 144 144 144 135 124 116 93 83 75 69 64 63 63 63 57 54 56 49 51 53 53 52 53 54 55 56 56 57 56 54
120 127 126 121 129 131 127 128 132 137 138 144 147 148 140 133 126 132 104 89 76 68 64 61 59 58 58 52 48 49 47 45 42 41 44 43 42 40 40 41 42 46 46 48
120 126 132 132 134 136 130 131 137 143 141 146 146 137 129 126 119 101 87 73 63 60 59 56 56 55 51 49 44 42 36 37 37 37 38 38 37 36 35 34 34 36 37 38
125 128 134 135 134 136 129 136 141 145 139 140 136 134 130 107 94 83 71 62 59 57 56 52 50 50 46 43 40 32 30 32 35 32 35 32 29 28 29 31 31 32 32 33
125 131 134 133 137 137 135 139 141 144 139 136 130 112 103 89 77 72 61 55 54 54 51 50 48 45 39 34 33 28 29 30 32 30 28 25 24 26 26 27 28 29 30 31
125 129 129 130 138 137 138 141 140 135 131 117 105 95 87 74 68 63 55 49 47 48 47 47 45 39 32 30 29 28 29 26 29 29 26 24 24 25 26 26 25 26 28 29
123 126 128 133 136 138 141 133 131 121 107 96 88 81 75 65 59 55 51 50 44 42 42 39 39 35 27 28 27 27 29 31 31 28 27 25 26 27 27 28 27 27 28 30
119 126 126 130 128 130 132 118 107 95 87 82 76 70 63 58 51 48 46 45 42 41 42 37 36 32 25 28 27 27 29 31 29 27 28 27 27 29 30 30 31 32 34 36
125 127 128 130 121 115 105 93 87 81 76 69 63 59 55 53 46 43 41 41 41 40 36 33 33 31 26 29 30 29 30 32 29 29 30 29 30 32 32 32 32 34 34 35
130 123 119 108 98 92 84 78 74 71 64 59 55 53 53 49 45 40 40 37 39 40 34 31 33 34 30 25 27 31 36 35 32 30 31 32 31 31 33 31 30 31 31 32
114 106 96 82 81 73 69 65 60 55 54 51 51 51 49 45 43 40 36 34 38 39 35 31 33 37 36 25 27 32 35 35 34 33 33 31 33 33 32 31 30 30 30 31
Wind_Direction
291 301 298 295 297 295 289 291 304 304 304 308 311 315 315 317 318 315 312 315 318 316 310 309 302 304 306 313 313 312 305 295 284 280 280 274 273 271 270 271 272 273 274 275
296 298 300 295 298 294 289 293 294 299 306 308 311 315 316 314 314 315 315 312 319 320 323 315 322 326 313 314 316 312 311 311 290 276 276 275 274 271 267 269 270 270 271 272
299 299 301 298 296 296 298 293 296 301 309 311 313 317 313 313 314 314 314 314 319 318 320 325 319 317 319 313 315 312 311 310 288 275 269 269 271 277 280 279 278 275 270 268
302 305 306 303 299 299 308 304 306 308 308 310 310 311 312 313 315 315 315 317 313 315 315 316 315 317 316 313 311 311 307 303 293 274 268 266 272 279 274 279 278 274 275 273
293 300 304 303 302 306 305 307 310 311 311 309 311 308 309 308 309 312 313 318 313 315 315 314 313 313 314 310 307 307 308 292 287 279 268 269 276 276 275 278 282 278 273 271
295 299 300 299 301 304 306 308 307 307 309 310 309 309 312 311 311 313 315 314 314 314 312 310 309 310 310 306 306 308 305 293 285 275 272 278 276 275 276 274 282 282 278 275
294 300 298 299 300 305 308 309 308 306 306 308 306 307 311 312 311 312 311 312 310 309 306 308 307 308 305 302 303 307 297 277 279 281 281 275 275 273 274 272 279 279 278 275
291 292 299 298 301 305 308 307 307 306 304 304 308 310 309 309 310 310 309 305 305 308 310 309 306 303 303 301 298 263 259 257 268 269 270 270 271 273 274 277 278 277 276 273
286 292 295 298 299 303 303 302 303 304 304 307 308 311 309 308 309 305 302 303 305 309 308 306 302 298 297 294 294 286 279 267 270 262 269 269 272 271 271 273 275 277 276 274
285 290 296 296 298 296 299 301 303 301 304 306 307 309 312 307 305 304 303 303 308 304 303 306 301 300 299 297 295 288 277 266 267 266 267 267 267 265 268 272 277 280 281 281
289 291 292 292 293 295 298 297 300 301 304 307 307 306 309 303 302 304 306 308 306 306 307 306 303 302 298 292 286 284 281 275 270 271 270 274 275 274 275 276 277 279 282 286
289 289 292 291 294 295 294 292 297 300 303 305 307 308 304 302 303 306 304 307 307 307 306 304 302 298 294 288 282 284 281 272 269 268 272 271 274 275 277 276 274 275 280 279
286 288 287 287 291 292 293 294 295 297 300 304 301 303 302 303 302 302 303 305 304 306 304 302 299 294 291 290 285 281 278 277 276 275 274 270 273 273 274 275 275 277 282 281
286 290 291 292 292 291 293 296 296 297 299 300 303 303 302 301 301 303 302 303 304 304 302 298 296 294 293 288 282 276 270 269 273 273 271 271 268 269 271 272 276 276 276 276
289 287 288 292 293 293 293 295 294 295 296 298 301 302 302 300 300 301 302 302 301 299 295 294 293 292 290 288 286 284 283 282 281 275 272 271 270 268 266 267 270 273 273 271
285 287 289 291 290 293 293 295 294 294 297 297 299 301 300 300 301 302 302 301 298 296 295 292 289 287 284 282 285 283 281 279 275 274 274 273 272 270 267 266 265 265 264 264
285 287 287 288 288 290 292 291 291 291 293 294 296 299 298 298 300 303 299 298 297 296 292 290 287 285 283 284 284 282 283 283 280 278 277 275 273 271 268 267 264 259 256 259
286 287 287 288 287 288 290 291 291 291 294 296 297 299 301 301 301 298 297 296 296 291 286 286 285 283 285 285 284 284 279 277 278 276 275 274 275 277 276 270 265 262 259 254
286 285 285 286 288 289 292 291 293 295 296 296 298 298 299 298 296 295 297 296 294 290 289 289 284 282 284 283 281 280 275 268 264 267 264 267 273 275 275 270 263 258 255 254
285 285 286 287 287 292 293 294 294 293 297 296 298 296 295 295 295 295 297 293 290 287 286 283 281 282 280 277 273 265 253 259 261 267 269 270 276 280 278 273 266 262 259 255
287 288 288 288 287 292 294 293 293 295 295 295 294 293 292 293 292 293 294 291 286 281 280 280 278 278 273 267 261 259 257 262 267 269 268 270 274 276 275 271 266 262 260 258
289 289 289 289 289 292 291 292 294 293 292 291 290 288 291 292 292 292 293 290 284 279 278 277 275 272 268 257 252 249 257 266 262 264 264 260 262 263 263 263 262 262 262 260
289 290 292 291 290 289 291 292 290 289 288 288 287 288 289 290 290 291 287 282 279 276 278 277 273 271 264 250 245 243 254 259 263 263 264 261 259 259 260 263 265 266 266 265
291 291 290 288 290 290 289 289 288 289 288 286 286 286 285 285 286 284 280 276 275 276 276 273 275 272 258 247 245 245 252 256 259 260 260 259 261 266 268 269 270 270 268 266
289 287 286 289 288 287 289 289 287 286 286 285 284 283 282 284 285 281 277 276 273 275 273 272 271 270 266 246 241 237 244 251 253 252 259 264 265 270 274 275 273 272 272 270
286 285 288 291 286 287 286 284 281 279 279 279 279 279 280 282 280 278 276 270 266 268 269 264 263 265 266 260 248 244 249 253 255 255 258 264 272 273 276 277 276 278 281 278